Weather History for Panama City Tyndall AFB, FL

Change the Weather History Date:

Saturday, February 15, 2014

  Actual Average Record
Temperature  
Mean Temperature 52 °F -  
Max Temperature 62 °F 64 °F 75 °F (2001)
Min Temperature 42 °F 46 °F 32 °F (2007)
Degree Days  
Heating Degree Days 13    
Growing Degree Days 2 (Base 50)    
Moisture  
Dew Point 39 °F    
Average Humidity 60    
Maximum Humidity 81    
Minimum Humidity 33    
Precipitation  
Precipitation 0.03 in - - ()
Sea Level Pressure  
Sea Level Pressure 30.04 in    
Wind  
Wind Speed 15 mph (NW)    
Max Wind Speed 37 mph    
Max Gust Speed 48 mph    
Visibility 9 miles    
Events Rain    
Averages and records for this station are not official NWS values.
T = Trace of Precipitation, MM = Missing Value Source: NWS Daily Summary

Daily Weather History Graph

Daily Weather History Graph

Search for Another Location

Airport:

Trip Planner

Search our weather history database for the weather conditions in past years. The results will help you decide how hot, cold, wet, or windy it might be!

Date:

Astronomy

Feb. 15, 2014 Rise Set
Actual Time 6:22 AM CST 5:31 PM CST
Civil Twilight 5:57 AM CST 5:55 PM CST
Nautical Twilight 5:29 AM CST 6:23 PM CST
Astronomical Twilight 5:01 AM CST 6:51 PM CST
Moon 6:22 PM CST (2/15) 6:26 AM CST (2/15)
Length of Visible Light 11h 57m
Length of Day
11h 08m
Waxing Gibbous, 99% of the Moon is Illuminated
Feb 15
Waxing Gibbous
Feb 22
Last Quarter
Mar 1
New
Mar 8
First Quarter
Mar 16
Full

Hourly Weather History & Observations

Time (CST) Temp. Dew Point Humidity Pressure Visibility Wind Dir Wind Speed Gust Speed Precip Events Conditions
12:48 AM 60.8 °F 50.0 °F 68% 29.84 in 10.0 mi WSW 18.4 mph 21.9 mph N/A   Mostly Cloudy
12:58 AM 61.5 °F 50.2 °F 66% 29.85 in 10.0 mi WSW 18.4 mph 25.3 mph N/A   Overcast
1:11 AM 62.6 °F 50.0 °F 63% 29.85 in 8.0 mi West 23.0 mph 28.8 mph N/A Rain Light Rain
1:13 AM 62.6 °F 50.0 °F 63% 29.84 in 6.0 mi WNW 36.8 mph 48.3 mph N/A Rain Rain
1:18 AM 59.0 °F 46.4 °F 63% 29.88 in 3.0 mi NW 25.3 mph 48.3 mph N/A Rain Heavy Rain
1:23 AM 55.4 °F 44.6 °F 67% 29.88 in 4.0 mi NW 19.6 mph 32.2 mph N/A Rain Light Rain
1:28 AM 55.4 °F 44.6 °F 67% 29.88 in 9.0 mi NW 18.4 mph 32.2 mph N/A Rain Light Rain
1:31 AM 53.6 °F 42.8 °F 67% 29.88 in 10.0 mi NW 15.0 mph - N/A   Overcast
1:58 AM 54.1 °F 39.6 °F 58% 29.91 in 10.0 mi NW 19.6 mph 27.6 mph 0.03 in   Overcast
2:23 AM 53.6 °F 39.2 °F 58% 29.91 in 10.0 mi NNW 16.1 mph 23.0 mph N/A   Overcast
2:58 AM 53.2 °F 38.5 °F 57% 29.93 in 10.0 mi NNW 16.1 mph - N/A   Mostly Cloudy
3:58 AM 51.4 °F 37.2 °F 58% 29.97 in 10.0 mi NNW 15.0 mph 21.9 mph N/A   Scattered Clouds
4:58 AM 49.6 °F 36.0 °F 59% 30.00 in 10.0 mi NNW 13.8 mph 24.2 mph N/A   Clear
5:58 AM 47.8 °F 34.9 °F 61% 30.03 in 10.0 mi NNW 8.1 mph - N/A   Clear
6:58 AM 46.9 °F 33.8 °F 60% 30.06 in 10.0 mi NW 16.1 mph - N/A   Clear
7:58 AM 47.8 °F 30.7 °F 52% 30.09 in 10.0 mi NNW 13.8 mph - N/A   Clear
8:58 AM 49.5 °F 30.4 °F 48% 30.11 in 10.0 mi NNW 11.5 mph - N/A   Clear
9:58 AM 52.3 °F 30.7 °F 44% 30.14 in 10.0 mi NW 8.1 mph - N/A   Clear
10:58 AM 55.2 °F 31.1 °F 40% 30.14 in 10.0 mi NW 8.1 mph - N/A   Clear
11:58 AM 57.7 °F 30.4 °F 35% 30.13 in 10.0 mi NW 8.1 mph - N/A   Clear
12:58 PM 59.7 °F 33.1 °F 37% 30.11 in 10.0 mi North 8.1 mph - N/A   Clear
1:58 PM 61.3 °F 34.2 °F 36% 30.11 in 10.0 mi NW 13.8 mph - N/A   Clear
2:58 PM 61.7 °F 32.2 °F 33% 30.12 in 10.0 mi NNW 8.1 mph - N/A   Clear
3:58 PM 58.3 °F 39.9 °F 50% 30.14 in 10.0 mi West 13.8 mph - N/A   Clear
4:58 PM 56.7 °F 39.2 °F 52% 30.16 in 10.0 mi WNW 9.2 mph - N/A   Clear
5:58 PM 51.6 °F 39.2 °F 63% 30.16 in 10.0 mi NW 4.6 mph - N/A   Clear
6:58 PM 49.3 °F 40.1 °F 71% 30.18 in 10.0 mi NW 5.8 mph - N/A   Clear
7:58 PM 49.3 °F 39.9 °F 70% 30.19 in 10.0 mi NNW 2.3 mph - N/A   Clear
8:58 PM 47.1 °F 39.7 °F 76% 30.19 in 10.0 mi Calm Calm - N/A   Clear
9:58 PM 44.8 °F 38.7 °F 79% 30.19 in 10.0 mi SSE 1.2 mph - N/A   Clear
10:58 PM 43.2 °F 37.0 °F 79% 30.17 in 10.0 mi Calm Calm - N/A   Clear
11:38 PM 42.8 °F 37.4 °F 81% 30.15 in 9.0 mi Calm Calm - N/A   Clear
11:48 PM 42.8 °F 37.4 °F 81% 30.14 in 10.0 mi ESE 1.2 mph - N/A   Clear
11:58 PM 42.8 °F 36.7 °F 79% 30.15 in 10.0 mi Calm Calm - N/A   Clear